Time,TemperatureF,DewpointF,PressureIn,WindDirection,WindDirectionDegrees,WindSpeedMPH,WindSpeedGustMPH,Humidity,HourlyPrecipIn,Conditions,Clouds,dailyrainin,SoftwareType,DateUTC
2013-02-01 00:01:00,18.0,13.0,30.46,ESE,114,0.0,-999.0,81,-99.99,,,-99.99,,2013-02-01 07:01:00,
2013-02-01 00:12:00,18.0,14.0,30.46,ESE,114,0.0,-999.0,83,-99.99,,,-99.99,,2013-02-01 07:12:00,
2013-02-01 00:21:00,18.0,14.0,30.46,ESE,114,0.0,-999.0,83,-99.99,,,-99.99,,2013-02-01 07:21:00,
2013-02-01 00:32:00,18.0,13.0,30.46,ESE,114,0.0,-999.0,82,-99.99,,,-99.99,,2013-02-01 07:32:00,
2013-02-01 00:41:00,18.0,13.0,30.46,ESE,114,0.0,-999.0,82,-99.99,,,-99.99,,2013-02-01 07:41:00,
2013-02-01 00:51:00,17.0,13.0,30.46,ESE,114,0.0,-999.0,83,-99.99,,,-99.99,,2013-02-01 07:51:00,
2013-02-01 01:01:00,16.0,11.0,30.46,ESE,114,0.0,-999.0,82,-99.99,,,-99.99,,2013-02-01 08:01:00,
2013-02-01 01:11:00,16.0,11.0,30.46,ESE,114,0.0,-999.0,82,-99.99,,,-99.99,,2013-02-01 08:11:00,
2013-02-01 01:21:00,16.0,12.0,30.46,ESE,114,0.0,-999.0,84,-99.99,,,-99.99,,2013-02-01 08:21:00,
2013-02-01 01:31:00,16.0,11.0,30.45,ESE,114,0.0,-999.0,82,-99.99,,,-99.99,,2013-02-01 08:31:00,
2013-02-01 01:42:00,16.0,11.0,30.45,ESE,114,0.0,-999.0,82,-99.99,,,-99.99,,2013-02-01 08:42:00,
2013-02-01 01:52:00,16.0,12.0,30.45,ESE,114,0.0,-999.0,85,-99.99,,,-99.99,,2013-02-01 08:52:00,
2013-02-01 02:01:00,15.0,11.0,30.45,ESE,114,0.0,-999.0,82,-99.99,,,-99.99,,2013-02-01 09:01:00,
2013-02-01 02:11:00,15.0,11.0,30.45,ESE,114,0.0,-999.0,82,-99.99,,,-99.99,,2013-02-01 09:11:00,
2013-02-01 02:21:00,16.0,12.0,30.45,ESE,114,0.0,-999.0,84,-99.99,,,-99.99,,2013-02-01 09:21:00,
2013-02-01 02:31:00,15.0,11.0,30.45,ESE,114,0.0,-999.0,84,-99.99,,,-99.99,,2013-02-01 09:31:00,
2013-02-01 02:41:00,15.0,11.0,30.45,ESE,114,0.0,-999.0,84,-99.99,,,-99.99,,2013-02-01 09:41:00,
2013-02-01 02:51:00,15.0,11.0,30.44,ESE,114,0.0,-999.0,85,-99.99,,,-99.99,,2013-02-01 09:51:00,
2013-02-01 03:01:00,15.0,11.0,30.44,ESE,114,0.0,-999.0,84,-99.99,,,-99.99,,2013-02-01 10:01:00,
2013-02-01 03:11:00,15.0,11.0,30.44,ESE,114,0.0,-999.0,84,-99.99,,,-99.99,,2013-02-01 10:11:00,
2013-02-01 03:21:00,15.0,11.0,30.45,ESE,114,0.0,-999.0,84,-99.99,,,-99.99,,2013-02-01 10:21:00,
2013-02-01 03:31:00,14.0,10.0,30.44,ESE,114,0.0,-999.0,84,-99.99,,,-99.99,,2013-02-01 10:31:00,
2013-02-01 03:42:00,14.0,10.0,30.44,ESE,114,0.0,-999.0,84,-99.99,,,-99.99,,2013-02-01 10:42:00,
2013-02-01 03:52:00,14.0,10.0,30.44,ESE,114,0.0,-999.0,84,-99.99,,,-99.99,,2013-02-01 10:52:00,
2013-02-01 04:01:00,14.0,10.0,30.44,ESE,114,0.0,-999.0,84,-99.99,,,-99.99,,2013-02-01 11:01:00,
2013-02-01 04:11:00,14.0,10.0,30.44,ESE,114,0.0,-999.0,84,-99.99,,,-99.99,,2013-02-01 11:11:00,
2013-02-01 04:21:00,14.0,10.0,30.43,ESE,114,0.0,-999.0,85,-99.99,,,-99.99,,2013-02-01 11:21:00,
2013-02-01 04:31:00,15.0,11.0,30.44,ESE,114,0.0,-999.0,85,-99.99,,,-99.99,,2013-02-01 11:31:00,
2013-02-01 04:41:00,15.0,11.0,30.44,ESE,114,0.0,-999.0,85,-99.99,,,-99.99,,2013-02-01 11:41:00,
2013-02-01 04:52:00,14.0,10.0,30.44,ESE,114,0.0,-999.0,84,-99.99,,,-99.99,,2013-02-01 11:52:00,
2013-02-01 05:02:00,14.0,10.0,30.43,ESE,114,0.0,-999.0,83,-99.99,,,-99.99,,2013-02-01 12:02:00,
2013-02-01 05:12:00,14.0,10.0,30.43,ESE,114,0.0,-999.0,83,-99.99,,,-99.99,,2013-02-01 12:12:00,
2013-02-01 05:22:00,13.0,9.0,30.43,ESE,114,0.0,-999.0,84,-99.99,,,-99.99,,2013-02-01 12:22:00,
2013-02-01 05:32:00,13.0,9.0,30.43,ESE,114,0.0,-999.0,84,-99.99,,,-99.99,,2013-02-01 12:32:00,
2013-02-01 05:42:00,13.0,9.0,30.43,ESE,114,0.0,-999.0,84,-99.99,,,-99.99,,2013-02-01 12:42:00,
2013-02-01 05:52:00,13.0,9.0,30.42,ESE,114,0.0,-999.0,85,-99.99,,,-99.99,,2013-02-01 12:52:00,
2013-02-01 06:01:00,13.0,9.0,30.43,ESE,114,0.0,-999.0,85,-99.99,,,-99.99,,2013-02-01 13:01:00,
2013-02-01 06:11:00,13.0,9.0,30.43,ESE,114,0.0,-999.0,85,-99.99,,,-99.99,,2013-02-01 13:11:00,
2013-02-01 06:21:00,13.0,9.0,30.43,ESE,114,0.0,-999.0,85,-99.99,,,-99.99,,2013-02-01 13:21:00,
2013-02-01 06:32:00,12.0,8.0,30.43,ESE,114,0.0,-999.0,84,-99.99,,,-99.99,,2013-02-01 13:32:00,
2013-02-01 06:42:00,12.0,8.0,30.43,ESE,114,0.0,-999.0,84,-99.99,,,-99.99,,2013-02-01 13:42:00,
2013-02-01 06:52:00,14.0,11.0,30.42,ESE,114,0.0,-999.0,86,-99.99,,,-99.99,,2013-02-01 13:52:00,
2013-02-01 07:03:00,14.0,10.0,30.42,ESE,114,0.0,-999.0,85,-99.99,,,-99.99,,2013-02-01 14:03:00,
2013-02-01 07:11:00,14.0,10.0,30.42,ESE,114,0.0,-999.0,84,-99.99,,,-99.99,,2013-02-01 14:11:00,
2013-02-01 07:21:00,14.0,10.0,30.42,ESE,114,0.0,-999.0,84,-99.99,,,-99.99,,2013-02-01 14:21:00,
2013-02-01 07:31:00,13.0,9.0,30.42,ESE,114,0.0,-999.0,83,-99.99,,,-99.99,,2013-02-01 14:31:00,
2013-02-01 07:42:00,13.0,9.0,30.42,ESE,114,0.0,-999.0,83,-99.99,,,-99.99,,2013-02-01 14:42:00,
2013-02-01 07:52:00,13.0,9.0,30.42,ESE,114,0.0,-999.0,83,-99.99,,,-99.99,,2013-02-01 14:52:00,
2013-02-01 08:02:00,12.0,8.0,30.43,ESE,114,0.0,-999.0,83,-99.99,,,-99.99,,2013-02-01 15:02:00,
2013-02-01 08:11:00,12.0,8.0,30.43,ESE,114,0.0,-999.0,83,-99.99,,,-99.99,,2013-02-01 15:11:00,
2013-02-01 08:21:00,12.0,8.0,30.43,ESE,114,0.0,-999.0,83,-99.99,,,-99.99,,2013-02-01 15:21:00,
2013-02-01 08:32:00,13.0,9.0,30.42,ESE,114,0.0,-999.0,85,-99.99,,,-99.99,,2013-02-01 15:32:00,
2013-02-01 08:42:00,13.0,9.0,30.42,ESE,114,0.0,-999.0,85,-99.99,,,-99.99,,2013-02-01 15:42:00,
2013-02-01 08:52:00,15.0,11.0,30.43,ESE,114,0.0,-999.0,85,-99.99,,,-99.99,,2013-02-01 15:52:00,
2013-02-01 09:02:00,15.0,11.0,30.43,ESE,114,0.0,-999.0,82,-99.99,,,-99.99,,2013-02-01 16:02:00,
2013-02-01 09:11:00,15.0,11.0,30.43,ESE,114,0.0,-999.0,82,-99.99,,,-99.99,,2013-02-01 16:11:00,
2013-02-01 09:21:00,15.0,11.0,30.43,ESE,114,0.0,-999.0,82,-99.99,,,-99.99,,2013-02-01 16:21:00,
2013-02-01 09:32:00,16.0,11.0,30.43,ESE,114,0.0,-999.0,79,-99.99,,,-99.99,,2013-02-01 16:32:00,
2013-02-01 09:42:00,18.0,13.0,30.43,ESE,114,0.0,-999.0,79,-99.99,,,-99.99,,2013-02-01 16:42:00,
2013-02-01 09:52:00,18.0,13.0,30.43,ESE,114,0.0,-999.0,79,-99.99,,,-99.99,,2013-02-01 16:52:00,
2013-02-01 10:02:00,19.0,12.0,30.43,ESE,117,1.0,-999.0,74,-99.99,,,-99.99,,2013-02-01 17:02:00,
2013-02-01 10:21:00,20.0,13.0,30.42,ESE,117,0.0,-999.0,74,-99.99,,,-99.99,,2013-02-01 17:21:00,
2013-02-01 10:31:00,22.0,13.0,30.42,SE,125,1.0,-999.0,69,-99.99,,,-99.99,,2013-02-01 17:31:00,
2013-02-01 10:41:00,22.0,13.0,30.42,SE,125,1.0,-999.0,69,-99.99,,,-99.99,,2013-02-01 17:41:00,
2013-02-01 10:52:00,24.0,17.0,30.42,SE,125,0.0,-999.0,73,-99.99,,,-99.99,,2013-02-01 17:52:00,
2013-02-01 11:02:00,26.0,15.0,30.42,SE,125,0.0,-999.0,63,-99.99,,,-99.99,,2013-02-01 18:02:00,
2013-02-01 11:11:00,26.0,15.0,30.42,SE,125,0.0,-999.0,63,-99.99,,,-99.99,,2013-02-01 18:11:00,
2013-02-01 11:21:00,27.0,18.0,30.42,West,261,1.0,-999.0,68,-99.99,,,-99.99,,2013-02-01 18:21:00,
2013-02-01 11:31:00,29.0,20.0,30.42,WNW,291,3.0,-999.0,69,-99.99,,,-99.99,,2013-02-01 18:31:00,
2013-02-01 11:42:00,29.0,20.0,30.42,WNW,291,3.0,-999.0,69,-99.99,,,-99.99,,2013-02-01 18:42:00,
2013-02-01 11:52:00,29.0,20.0,30.42,WNW,295,2.0,-999.0,70,-99.99,,,-99.99,,2013-02-01 18:52:00,
2013-02-01 12:02:00,31.0,21.0,30.41,SSE,154,2.0,-999.0,67,-99.99,,,-99.99,,2013-02-01 19:02:00,
2013-02-01 12:11:00,31.0,21.0,30.41,SSE,154,2.0,-999.0,67,-99.99,,,-99.99,,2013-02-01 19:11:00,
2013-02-01 12:21:00,31.0,21.0,30.41,SSW,208,3.0,-999.0,66,-99.99,,,-99.99,,2013-02-01 19:21:00,
2013-02-01 12:32:00,33.0,24.0,30.40,South,176,1.0,-999.0,68,-99.99,,,-99.99,,2013-02-01 19:32:00,
2013-02-01 12:41:00,33.0,24.0,30.40,South,176,1.0,-999.0,68,-99.99,,,-99.99,,2013-02-01 19:41:00,
2013-02-01 12:51:00,33.0,22.0,30.39,SSW,199,3.0,-999.0,64,-99.99,,,-99.99,,2013-02-01 19:51:00,
2013-02-01 13:01:00,33.0,22.0,30.38,West,269,3.0,-999.0,63,-99.99,,,-99.99,,2013-02-01 20:01:00,
2013-02-01 13:11:00,33.0,23.0,30.37,South,178,5.0,-999.0,65,-99.99,,,-99.99,,2013-02-01 20:11:00,
2013-02-01 13:21:00,33.0,23.0,30.37,South,178,5.0,-999.0,65,-99.99,,,-99.99,,2013-02-01 20:21:00,
2013-02-01 13:31:00,33.0,22.0,30.36,South,186,4.0,-999.0,64,-99.99,,,-99.99,,2013-02-01 20:31:00,
2013-02-01 13:41:00,33.0,22.0,30.36,South,186,4.0,-999.0,64,-99.99,,,-99.99,,2013-02-01 20:41:00,
2013-02-01 13:52:00,33.0,22.0,30.35,SW,234,5.0,-999.0,63,-99.99,,,-99.99,,2013-02-01 20:52:00,
2013-02-01 14:01:00,34.0,22.0,30.35,WSW,249,3.0,-999.0,61,-99.99,,,-99.99,,2013-02-01 21:01:00,
2013-02-01 14:11:00,34.0,22.0,30.35,WSW,249,3.0,-999.0,61,-99.99,,,-99.99,,2013-02-01 21:11:00,
2013-02-01 14:21:00,34.0,22.0,30.35,SSW,194,5.0,-999.0,61,-99.99,,,-99.99,,2013-02-01 21:21:00,
2013-02-01 14:31:00,35.0,23.0,30.35,WNW,290,3.0,-999.0,60,-99.99,,,-99.99,,2013-02-01 21:31:00,
2013-02-01 14:41:00,35.0,23.0,30.35,WNW,290,3.0,-999.0,60,-99.99,,,-99.99,,2013-02-01 21:41:00,
2013-02-01 14:52:00,36.0,23.0,30.36,SSE,157,3.0,-999.0,59,-99.99,,,-99.99,,2013-02-01 21:52:00,
2013-02-01 15:01:00,36.0,23.0,30.35,WSW,249,4.0,-999.0,58,-99.99,,,-99.99,,2013-02-01 22:01:00,
2013-02-01 15:11:00,36.0,23.0,30.35,WSW,249,4.0,-999.0,58,-99.99,,,-99.99,,2013-02-01 22:11:00,
2013-02-01 15:21:00,36.0,22.0,30.35,SSW,199,3.0,-999.0,57,-99.99,,,-99.99,,2013-02-01 22:21:00,
2013-02-01 15:32:00,37.0,23.0,30.35,SSE,163,4.0,-999.0,57,-99.99,,,-99.99,,2013-02-01 22:32:00,
2013-02-01 15:42:00,37.0,23.0,30.35,SSE,163,4.0,-999.0,57,-99.99,,,-99.99,,2013-02-01 22:42:00,
2013-02-01 15:51:00,37.0,23.0,30.35,WNW,298,4.0,-999.0,56,-99.99,,,-99.99,,2013-02-01 22:51:00,
2013-02-01 16:01:00,37.0,23.0,30.35,South,188,3.0,-999.0,57,-99.99,,,-99.99,,2013-02-01 23:01:00,
2013-02-01 16:11:00,37.0,23.0,30.35,South,188,3.0,-999.0,57,-99.99,,,-99.99,,2013-02-01 23:11:00,
2013-02-01 16:21:00,38.0,24.0,30.35,South,171,2.0,-999.0,56,-99.99,,,-99.99,,2013-02-01 23:21:00,
2013-02-01 16:31:00,37.0,23.0,30.35,SSE,163,3.0,-999.0,57,-99.99,,,-99.99,,2013-02-01 23:31:00,
2013-02-01 16:41:00,37.0,23.0,30.35,SSE,163,3.0,-999.0,57,-99.99,,,-99.99,,2013-02-01 23:41:00,
2013-02-01 16:52:00,37.0,23.0,30.35,SSW,203,1.0,-999.0,56,-99.99,,,-99.99,,2013-02-01 23:52:00,
2013-02-01 17:01:00,35.0,23.0,30.36,NNW,340,1.0,-999.0,60,-99.99,,,-99.99,,2013-02-02 00:01:00,
2013-02-01 17:11:00,35.0,23.0,30.36,NNW,340,1.0,-999.0,60,-99.99,,,-99.99,,2013-02-02 00:11:00,
2013-02-01 17:21:00,33.0,22.0,30.36,WNW,286,1.0,-999.0,63,-99.99,,,-99.99,,2013-02-02 00:21:00,
2013-02-01 17:32:00,33.0,22.0,30.36,WNW,295,2.0,-999.0,64,-99.99,,,-99.99,,2013-02-02 00:32:00,
2013-02-01 17:41:00,33.0,22.0,30.36,WNW,295,2.0,-999.0,64,-99.99,,,-99.99,,2013-02-02 00:41:00,
2013-02-01 17:52:00,32.0,21.0,30.37,WNW,298,0.0,-999.0,64,-99.99,,,-99.99,,2013-02-02 00:52:00,
2013-02-01 18:01:00,32.0,22.0,30.37,WNW,298,3.0,-999.0,67,-99.99,,,-99.99,,2013-02-02 01:01:00,
2013-02-01 18:11:00,32.0,22.0,30.37,WNW,298,3.0,-999.0,67,-99.99,,,-99.99,,2013-02-02 01:11:00,
2013-02-01 18:21:00,30.0,21.0,30.38,WNW,298,0.0,-999.0,68,-99.99,,,-99.99,,2013-02-02 01:21:00,
2013-02-01 18:31:00,30.0,21.0,30.38,WNW,298,0.0,-999.0,68,-99.99,,,-99.99,,2013-02-02 01:31:00,
2013-02-01 18:41:00,30.0,21.0,30.38,WNW,298,0.0,-999.0,68,-99.99,,,-99.99,,2013-02-02 01:41:00,
2013-02-01 18:52:00,29.0,20.0,30.39,WNW,298,0.0,-999.0,70,-99.99,,,-99.99,,2013-02-02 01:52:00,
2013-02-01 19:01:00,29.0,20.0,30.39,WNW,298,0.0,-999.0,70,-99.99,,,-99.99,,2013-02-02 02:01:00,
2013-02-01 19:11:00,29.0,20.0,30.39,WNW,298,0.0,-999.0,70,-99.99,,,-99.99,,2013-02-02 02:11:00,
2013-02-01 19:21:00,27.0,20.0,30.40,WNW,298,0.0,-999.0,73,-99.99,,,-99.99,,2013-02-02 02:21:00,
2013-02-01 19:31:00,27.0,20.0,30.40,WNW,298,0.0,-999.0,73,-99.99,,,-99.99,,2013-02-02 02:31:00,
2013-02-01 19:41:00,27.0,20.0,30.40,WNW,298,0.0,-999.0,73,-99.99,,,-99.99,,2013-02-02 02:41:00,
2013-02-01 19:52:00,26.0,19.0,30.42,WNW,298,0.0,-999.0,73,-99.99,,,-99.99,,2013-02-02 02:52:00,
2013-02-01 20:02:00,26.0,19.0,30.42,WNW,298,0.0,-999.0,75,-99.99,,,-99.99,,2013-02-02 03:02:00,
2013-02-01 20:11:00,26.0,19.0,30.42,WNW,298,0.0,-999.0,75,-99.99,,,-99.99,,2013-02-02 03:11:00,
2013-02-01 20:21:00,25.0,18.0,30.42,WNW,298,0.0,-999.0,75,-99.99,,,-99.99,,2013-02-02 03:21:00,
2013-02-01 20:32:00,24.0,18.0,30.42,WNW,298,0.0,-999.0,76,-99.99,,,-99.99,,2013-02-02 03:32:00,
2013-02-01 20:42:00,24.0,18.0,30.42,WNW,298,0.0,-999.0,79,-99.99,,,-99.99,,2013-02-02 03:42:00,
2013-02-01 20:51:00,24.0,18.0,30.42,WNW,298,0.0,-999.0,79,-99.99,,,-99.99,,2013-02-02 03:51:00,
2013-02-01 21:01:00,23.0,17.0,30.43,WNW,298,0.0,-999.0,77,-99.99,,,-99.99,,2013-02-02 04:01:00,
2013-02-01 21:11:00,23.0,17.0,30.43,WNW,298,0.0,-999.0,77,-99.99,,,-99.99,,2013-02-02 04:11:00,
2013-02-01 21:21:00,23.0,17.0,30.44,WNW,298,0.0,-999.0,79,-99.99,,,-99.99,,2013-02-02 04:21:00,
2013-02-01 21:32:00,22.0,16.0,30.45,WNW,298,0.0,-999.0,79,-99.99,,,-99.99,,2013-02-02 04:32:00,
2013-02-01 21:41:00,22.0,16.0,30.45,WNW,298,0.0,-999.0,79,-99.99,,,-99.99,,2013-02-02 04:41:00,
2013-02-01 21:51:00,22.0,17.0,30.45,WNW,298,0.0,-999.0,80,-99.99,,,-99.99,,2013-02-02 04:51:00,
2013-02-01 22:02:00,22.0,16.0,30.45,WNW,298,0.0,-999.0,79,-99.99,,,-99.99,,2013-02-02 05:02:00,
2013-02-01 22:11:00,22.0,16.0,30.45,WNW,298,0.0,-999.0,79,-99.99,,,-99.99,,2013-02-02 05:11:00,
2013-02-01 22:22:00,21.0,16.0,30.45,WNW,298,0.0,-999.0,79,-99.99,,,-99.99,,2013-02-02 05:22:00,
2013-02-01 22:32:00,21.0,16.0,30.45,WNW,298,0.0,-999.0,80,-99.99,,,-99.99,,2013-02-02 05:32:00,
2013-02-01 22:41:00,21.0,16.0,30.45,WNW,298,0.0,-999.0,80,-99.99,,,-99.99,,2013-02-02 05:41:00,
2013-02-01 22:52:00,21.0,16.0,30.45,WNW,298,0.0,-999.0,80,-99.99,,,-99.99,,2013-02-02 05:52:00,
2013-02-01 23:02:00,20.0,15.0,30.45,WNW,298,0.0,-999.0,80,-99.99,,,-99.99,,2013-02-02 06:02:00,
2013-02-01 23:12:00,20.0,15.0,30.45,WNW,298,0.0,-999.0,80,-99.99,,,-99.99,,2013-02-02 06:12:00,
2013-02-01 23:21:00,20.0,15.0,30.46,WNW,298,0.0,-999.0,81,-99.99,,,-99.99,,2013-02-02 06:21:00,
2013-02-01 23:31:00,20.0,15.0,30.46,WNW,298,0.0,-999.0,81,-99.99,,,-99.99,,2013-02-02 06:31:00,
2013-02-01 23:41:00,20.0,15.0,30.46,WNW,298,0.0,-999.0,81,-99.99,,,-99.99,,2013-02-02 06:41:00,
2013-02-01 23:51:00,19.0,14.0,30.46,WNW,298,0.0,-999.0,80,-99.99,,,-99.99,,2013-02-02 06:51:00,